FW2402 Weather Reports


time (UTC)temp
F
wind
direction
speed
knots
gust
knots
rain 1hr
in
rain 24hr
in
rain mn
in
humidity
%
barometer
mb
20260904081543 74 0 0.0 0.0 0.00 0.48 0.00 96 1013.3
20260904081023 74 0 0.0 0.0 0.00 0.48 0.00 96 1013.3
20260904080521 74 0 0.0 0.0 0.00 0.48 0.00 96 1013.3
20260904080045 74 0 0.0 0.0 0.00 0.48 0.00 96 1013.3
20260904075522 74 0 0.0 0.0 0.00 0.48 0.00 96 1013.3
20260904075027 74 0 0.0 0.0 0.00 0.48 0.00 96 1013.2
20260904074541 74 0 0.0 0.0 0.00 0.48 0.00 96 1013.3
20260904074025 74 0 0.0 0.0 0.00 0.48 0.00 96 1013.3
20260904073524 74 0 0.0 0.0 0.00 0.48 0.00 96 1013.2
20260904073040 74 0 0.0 0.0 0.00 0.48 0.00 96 1013.2
20260904072523 74 0 0.0 0.0 0.00 0.48 0.00 96 1013.2
20260904072030 74 0 0.0 0.0 0.00 0.48 0.00 96 1013.3
20260904071601 74 0 0.0 0.0 0.00 0.48 0.00 96 1013.1
20260904071020 74 0 0.0 0.0 0.00 0.48 0.00 96 1013.1
20260904070524 74 0 0.0 0.0 0.00 0.48 0.00 96 1013.2
20260904070108 74 0 0.0 0.0 0.00 0.48 0.00 96 1013.1
20260904065521 74 0 0.0 0.0 0.00 0.48 0.00 96 1013.3
20260904065028 74 0 0.0 0.0 0.00 0.48 0.00 96 1013.3
20260904064550 74 0 0.0 0.0 0.00 0.48 0.00 96 1013.1
20260904064021 74 0 0.0 0.0 0.00 0.48 0.00 96 1013.1
20260904063524 75 0 0.0 0.0 0.00 0.48 0.00 96 1013.1
20260904063100 75 0 0.0 0.0 0.00 0.48 0.00 96 1013.2
20260904062524 75 0 0.0 0.0 0.00 0.48 0.00 96 1013.3
20260904062019 75 0 0.0 0.0 0.00 0.48 0.00 96 1013.4
20260904061542 75 0 0.0 0.0 0.00 0.48 0.00 96 1013.6
20260904061019 75 0 0.0 0.0 0.00 0.48 0.00 96 1013.6
20260904060522 75 0 0.0 0.0 0.00 0.48 0.00 96 1013.7
20260904060042 75 0 0.0 0.0 0.00 0.48 0.00 96 1013.6
20260904055525 75 0 0.0 0.0 0.00 0.48 0.00 96 1013.7
20260904055025 75 0 0.0 0.0 0.00 0.48 0.00 96 1013.7
20260904054551 75 0 0.0 1.7 0.00 0.48 0.00 96 1013.9
20260904054023 75 0 0.0 1.7 0.00 0.48 0.00 96 1013.9
20260904053522 75 0 0.0 1.7 0.00 0.48 0.00 96 1013.8
20260904053055 75 0 0.0 0.0 0.00 0.48 0.00 96 1013.9
20260904052523 75 0 0.0 0.0 0.00 0.48 0.00 96 1013.9
20260904052022 75 0 0.0 0.0 0.00 0.48 0.00 96 1014.0
20260904051544 75 0 0.0 0.0 0.00 0.48 0.00 96 1014.0
20260904051023 75 0 0.0 0.0 0.00 0.48 0.00 96 1013.9
20260904050521 75 0 0.0 0.0 0.00 0.48 0.00 96 1014.1
20260904050049 75 0 0.0 0.0 0.00 0.48 0.00 96 1014.1
20260904045525 75 0 0.0 0.0 0.00 0.49 0.00 96 1014.1
20260904045025 75 0 0.0 0.0 0.00 0.49 0.00 96 1014.1
20260904044546 75 0 0.0 0.0 0.00 0.49 0.00 96 1014.1
20260904044023 75 0 0.0 0.0 0.00 0.49 0.00 96 1014.1
20260904043519 75 0 0.0 0.0 0.00 0.49 0.00 96 1014.1
20260904043056 75 0 0.0 0.0 0.00 0.49 0.00 96 1014.1
20260904042525 75 0 0.0 0.0 0.00 0.49 0.00 96 1014.1
20260904042024 75 0 0.0 0.0 0.00 0.49 0.00 96 1014.1
20260904041546 75 0 0.0 0.0 0.00 0.49 0.00 96 1014.2
20260904041021 75 0 0.0 0.0 0.00 0.49 0.00 96 1014.1
20260904040522 75 0 0.0 1.7 0.00 0.49 0.00 96 1014.1
20260904035525 75 0 0.0 2.6 0.00 0.49 0.49 96 1014.1
20260904035022 75 101 0.9 2.6 0.00 0.49 0.49 96 1013.9
20260904034541 75 99 0.9 2.6 0.00 0.49 0.49 96 1014.0
20260904034019 75 109 0.9 2.6 0.00 0.49 0.49 96 1014.1
20260904033520 76 102 0.0 2.6 0.00 0.49 0.49 96 1014.1
20260904033044 76 0 0.0 0.0 0.00 0.49 0.49 96 1014.1
20260904032523 76 0 0.0 0.0 0.00 0.49 0.49 96 1014.1
20260904032021 76 0 0.0 0.9 0.00 0.49 0.49 96 1014.1
20260904031552 76 0 0.0 1.7 0.00 0.49 0.49 96 1014.1
20260904031024 76 0 0.0 1.7 0.00 0.49 0.49 96 1014.2
20260904030524 76 0 0.0 1.7 0.00 0.49 0.49 96 1014.2
20260904030043 76 0 0.0 2.6 0.00 0.49 0.49 96 1014.1
20260904025524 76 118 0.9 2.6 0.00 0.49 0.49 96 1014.1
20260904025022 76 136 0.9 2.6 0.00 0.49 0.49 96 1014.1
20260904024554 76 101 0.9 2.6 0.00 0.49 0.49 96 1014.1
20260904024018 76 107 0.9 4.3 0.00 0.49 0.49 96 1014.1
20260904023524 76 128 1.7 4.3 0.01 0.49 0.49 96 1014.0
20260904023049 76 121 1.7 3.5 0.01 0.49 0.49 96 1014.0
20260904022525 76 96 1.7 4.3 0.01 0.49 0.49 96 1013.9
20260904022024 76 0 0.9 4.3 0.01 0.49 0.49 96 1013.9
20260904021547 76 119 1.7 4.3 0.01 0.49 0.49 96 1013.8
20260904021024 76 115 0.9 2.6 0.01 0.49 0.49 96 1013.9
20260904020524 76 74 0.9 2.6 0.01 0.49 0.49 96 1013.8
20260904020046 76 82 0.9 2.6 0.01 0.49 0.49 96 1013.7
20260904015524 76 108 0.9 2.6 0.02 0.52 0.49 96 1013.8
20260904015022 76 0 0.9 3.5 0.02 0.52 0.49 96 1013.7
20260904014557 76 109 0.9 3.5 0.03 0.52 0.49 96 1013.7
20260904014025 76 108 0.9 2.6 0.03 0.52 0.49 96 1013.7
20260904013525 76 120 0.0 2.6 0.03 0.51 0.48 96 1013.7
20260904013048 76 76 0.9 2.6 0.03 0.51 0.48 96 1013.7
20260904012524 76 69 0.9 2.6 0.03 0.51 0.48 96 1013.7
20260904012024 76 91 0.9 3.5 0.03 0.51 0.48 96 1013.6
20260904011546 76 65 1.7 3.5 0.03 0.51 0.48 95 1013.4
20260904011024 76 93 1.7 2.6 0.04 0.51 0.48 95 1013.4
20260904010524 76 98 0.9 2.6 0.05 0.51 0.48 95 1013.4
20260904010050 76 98 0.9 2.6 0.06 0.51 0.48 95 1013.4
20260904005523 76 79 0.9 2.6 0.11 0.50 0.47 95 1013.3
20260904005024 76 0 0.0 1.7 0.21 0.49 0.46 95 1013.3
20260904004544 77 0 0.0 0.9 0.30 0.49 0.46 95 1013.4
20260904004023 76 0 0.0 0.9 0.45 0.49 0.46 95 1013.4
20260904003520 76 0 0.0 2.6 0.44 0.48 0.45 95 1013.4
20260904003043 76 89 0.0 3.5 0.44 0.48 0.45 95 1013.3
20260904002524 76 109 0.9 3.5 0.44 0.48 0.45 95 1013.4
20260904002026 76 123 0.0 6.1 0.44 0.48 0.45 95 1013.5
20260904001551 76 100 0.9 6.1 0.43 0.47 0.44 94 1013.5
20260904001024 76 116 1.7 6.1 0.43 0.47 0.44 94 1013.6
20260904000524 76 155 1.7 8.7 0.42 0.46 0.43 94 1013.6
20260904000052 76 202 3.5 8.7 0.40 0.44 0.41 93 1013.6
20260903235526 77 142 2.6 8.7 0.34 0.38 0.35 92 1013.7
20260903235024 77 167 0.9 8.7 0.23 0.27 0.24 91 1013.8
20260903234541 79 301 1.7 15.6 0.13 0.17 0.14 89 1013.8
20260903234025 81 104 7.8 15.6 0.00 0.04 0.01 85 1013.8
20260903233529 82 132 5.2 11.3 0.00 0.04 0.01 85 1013.7
20260903233041 83 80 2.6 7.0 0.00 0.04 0.01 87 1013.3
20260903232524 83 112 2.6 7.8 0.00 0.04 0.01 86 1013.2
20260903232024 83 78 2.6 8.7 0.00 0.04 0.01 85 1013.1
20260903231548 83 84 3.5 8.7 0.00 0.04 0.01 85 1013.0
20260903231024 83 83 4.3 7.8 0.00 0.04 0.01 85 1013.0
20260903230521 84 80 3.5 7.8 0.00 0.04 0.01 85 1013.1
20260903230047 84 115 2.6 6.1 0.00 0.04 0.01 84 1013.1
20260903225524 84 67 3.5 7.0 0.00 0.04 0.01 83 1013.0
20260903225024 84 61 3.5 7.0 0.00 0.04 0.01 82 1012.8
20260903224540 85 114 2.6 7.0 0.00 0.04 0.01 82 1012.8
20260903224024 85 83 2.6 6.1 0.00 0.04 0.01 80 1012.5
20260903223524 85 78 1.7 3.5 0.00 0.04 0.01 79 1012.7
20260903223043 86 82 0.9 3.5 0.00 0.04 0.01 79 1012.7
20260903222522 86 74 0.9 3.5 0.00 0.04 0.01 78 1012.7
20260903222024 86 55 1.7 3.5 0.00 0.04 0.01 77 1012.5
20260903221542 86 64 0.9 3.5 0.00 0.04 0.01 79 1012.4
20260903221018 86 67 0.9 3.5 0.00 0.04 0.01 77 1012.4
20260903220524 86 59 0.9 3.5 0.00 0.04 0.01 77 1012.4
20260903220051 87 71 1.7 3.5 0.00 0.04 0.01 76 1012.4
20260903215525 86 77 1.7 4.3 0.00 0.04 0.01 77 1012.2
20260903215025 86 82 1.7 4.3 0.00 0.04 0.01 79 1012.4
20260903214604 86 59 1.7 5.2 0.00 0.04 0.01 79 1012.4
20260903214024 86 69 1.7 7.0 0.00 0.04 0.01 79 1012.3
20260903213523 87 63 2.6 7.0 0.00 0.04 0.01 79 1012.1
20260903213047 87 56 2.6 7.0 0.00 0.04 0.01 79 1011.8
20260903212528 86 112 3.5 7.0 0.00 0.04 0.01 78 1011.8
20260903212024 87 53 2.6 7.0 0.00 0.04 0.01 78 1011.8
20260903211542 87 76 3.5 7.0 0.00 0.04 0.01 76 1011.8
20260903211025 86 38 2.6 6.1 0.00 0.04 0.01 79 1011.8
20260903210525 87 88 1.7 5.2 0.00 0.04 0.01 79 1011.6
20260903210048 86 96 0.9 5.2 0.00 0.04 0.01 79 1011.7
20260903205523 86 99 2.6 4.3 0.00 0.04 0.01 79 1011.8
20260903205022 87 72 1.7 3.5 0.00 0.04 0.01 81 1011.9
20260903204542 87 59 1.7 5.2 0.00 0.04 0.01 81 1012.0
20260903204023 87 74 0.9 6.1 0.00 0.04 0.01 82 1012.1
20260903203526 87 0 1.7 6.1 0.00 0.04 0.01 82 1011.9
20260903203042 87 121 1.7 4.3 0.00 0.04 0.01 80 1011.9
20260903202526 86 98 1.7 3.5 0.00 0.04 0.01 85 1012.1
20260903202023 85 107 1.7 5.2 0.00 0.04 0.01 83 1012.3
20260903201558 85 105 2.6 5.2 0.00 0.04 0.01 84 1012.4
20260903201027 85 101 1.7 4.3 0.00 0.04 0.01 84 1012.5
20260903200526 84 113 1.7 7.0 0.00 0.04 0.01 85 1012.4
20260903200051 84 110 2.6 7.0 0.00 0.04 0.01 86 1012.6
20260903195523 84 109 3.5 6.1 0.00 0.04 0.01 85 1012.7
20260903195029 84 65 2.6 6.1 0.00 0.04 0.01 85 1012.7
20260903194542 84 123 1.7 7.0 0.00 0.04 0.01 87 1012.8
20260903194023 83 55 3.5 7.8 0.00 0.04 0.01 88 1013.0
20260903193525 83 78 4.3 7.8 0.00 0.04 0.01 87 1013.1
20260903193049 83 91 2.6 6.1 0.00 0.04 0.01 90 1013.3
20260903192530 83 82 2.6 6.1 0.00 0.04 0.01 90 1013.3
20260903192025 83 40 2.6 6.1 0.00 0.04 0.01 89 1013.6
20260903191549 82 95 2.6 6.1 0.00 0.04 0.01 89 1013.6
20260903191024 83 83 1.7 6.1 0.00 0.04 0.01 89 1013.6
20260903190524 82 100 2.6 5.2 0.00 0.04 0.01 92 1013.7
20260903190044 81 83 1.7 5.2 0.00 0.04 0.01 92 1013.8
20260903185522 80 94 1.7 6.1 0.00 0.04 0.01 92 1013.7
20260903185024 80 104 2.6 6.1 0.00 0.04 0.01 91 1013.7
20260903184551 80 157 2.6 7.0 0.00 0.04 0.01 90 1013.7
20260903184027 80 115 1.7 7.0 0.00 0.04 0.01 90 1013.6
20260903183524 80 124 2.6 8.7 0.00 0.04 0.01 89 1013.6
20260903183050 80 137 1.7 8.7 0.00 0.04 0.01 88 1013.6
20260903182524 81 154 3.5 8.7 0.00 0.04 0.01 88 1013.7
20260903182025 81 107 2.6 5.2 0.00 0.04 0.01 89 1013.6
20260903181547 81 92 1.7 6.1 0.00 0.04 0.01 89 1013.6
20260903181026 81 79 1.7 6.1 0.00 0.04 0.01 88 1013.6
20260903180529 81 80 3.5 6.1 0.00 0.04 0.01 88 1013.5
20260903180047 81 74 1.7 4.3 0.00 0.04 0.01 87 1013.6
20260903175520 82 80 1.7 7.0 0.00 0.04 0.01 87 1013.7
20260903175023 81 96 1.7 7.0 0.00 0.04 0.01 87 1013.8
20260903174542 82 98 1.7 7.0 0.00 0.04 0.01 87 1014.0
20260903174022 82 121 2.6 7.0 0.00 0.04 0.01 86 1014.2
20260903173525 82 119 3.5 7.0 0.00 0.04 0.01 86 1014.3
20260903173043 83 109 2.6 5.2 0.00 0.04 0.01 87 1014.4
20260903172528 83 84 2.6 5.2 0.00 0.04 0.01 86 1014.4
20260903172026 83 80 1.7 7.0 0.00 0.04 0.01 86 1014.4
20260903171545 83 80 2.6 7.0 0.00 0.04 0.01 86 1014.3
20260903171025 83 107 2.6 7.0 0.00 0.04 0.01 86 1014.5
20260903170524 84 85 4.3 7.8 0.00 0.04 0.01 85 1014.6
20260903170052 84 90 4.3 7.8 0.00 0.04 0.01 85 1014.6
20260903165526 84 77 4.3 9.6 0.00 0.04 0.01 83 1014.5
20260903165025 84 65 4.3 9.6 0.00 0.04 0.01 84 1014.5
20260903164549 85 64 3.5 7.8 0.00 0.04 0.01 84 1014.6
20260903164025 85 63 4.3 8.7 0.00 0.04 0.01 83 1014.6
20260903163527 85 76 3.5 8.7 0.00 0.04 0.01 83 1014.6
20260903163101 86 76 3.5 9.6 0.00 0.04 0.01 80 1014.7
20260903162523 86 32 3.5 9.6 0.00 0.04 0.01 83 1014.7
20260903162025 85 62 6.1 9.6 0.00 0.04 0.01 82 1014.6
20260903161543 85 89 5.2 8.7 0.00 0.04 0.01 79 1014.7
20260903161023 85 80 2.6 8.7 0.00 0.04 0.01 81 1014.7
20260903160526 87 76 1.7 8.7 0.00 0.04 0.01 81 1014.6
20260903160048 87 114 2.6 7.8 0.00 0.04 0.01 82 1014.6
20260903155525 85 101 4.3 7.8 0.00 0.04 0.01 84 1014.7
20260903155026 84 55 3.5 7.8 0.00 0.04 0.01 85 1014.7
20260903154550 84 63 3.5 7.8 0.00 0.04 0.01 84 1014.8
20260903154027 83 50 3.5 7.8 0.00 0.04 0.01 85 1014.9
20260903153525 84 49 2.6 7.0 0.00 0.04 0.01 86 1014.8
20260903153058 84 60 3.5 7.0 0.00 0.04 0.01 85 1014.8
20260903152523 84 61 3.5 7.0 0.00 0.04 0.01 85 1014.9
20260903152028 84 29 1.7 7.0 0.00 0.04 0.01 87 1014.9
20260903151542 83 134 3.5 7.0 0.00 0.04 0.01 87 1014.9
20260903151025 83 86 3.5 8.7 0.00 0.04 0.01 88 1014.9
20260903150525 83 103 4.3 8.7 0.00 0.04 0.01 88 1014.7
20260903150100 83 48 3.5 7.8 0.00 0.04 0.01 88 1014.8
20260903145526 84 73 3.5 7.8 0.00 0.04 0.01 88 1014.9
20260903145026 83 43 2.6 7.8 0.00 0.04 0.01 89 1014.9
20260903144544 83 86 2.6 7.0 0.00 0.04 0.01 90 1014.9
20260903144023 82 86 3.5 8.7 0.00 0.04 0.01 90 1014.9
20260903143525 82 62 3.5 8.7 0.00 0.04 0.01 91 1015.0
20260903143058 81 90 4.3 7.8 0.00 0.04 0.01 91 1014.9
20260903142525 81 26 2.6 7.8 0.00 0.04 0.01 91 1014.9
20260903142025 81 76 2.6 6.1 0.00 0.04 0.01 91 1014.9
20260903141550 81 46 2.6 6.1 0.00 0.04 0.01 91 1014.7
20260903141024 81 38 2.6 4.3 0.00 0.04 0.01 91 1014.7
20260903140525 82 43 1.7 6.1 0.00 0.04 0.01 91 1014.7
20260903140051 82 81 2.6 7.0 0.00 0.04 0.01 91 1014.7
20260903135526 82 70 2.6 7.8 0.00 0.04 0.01 92 1014.7
20260903135023 81 68 4.3 7.8 0.00 0.04 0.01 91 1014.6
20260903134545 82 57 3.5 7.0 0.00 0.04 0.01 91 1014.6
20260903134020 81 52 3.5 7.0 0.00 0.04 0.01 92 1014.5
20260903133524 81 52 3.5 7.0 0.00 0.04 0.01 91 1014.5
20260903133042 82 72 2.6 4.3 0.00 0.04 0.01 92 1014.5
20260903132522 81 0 0.9 3.5 0.00 0.04 0.01 93 1014.4
20260903132024 81 61 0.9 3.5 0.00 0.04 0.01 94 1014.4
20260903131543 81 0 0.9 4.3 0.00 0.04 0.01 95 1014.4
20260903131030 80 58 1.7 4.3 0.00 0.04 0.01 95 1014.4
20260903130528 80 40 1.7 5.2 0.00 0.04 0.01 96 1014.4
20260903130048 79 43 2.6 5.2 0.00 0.04 0.01 96 1014.3
20260903125521 79 61 2.6 5.2 0.00 0.04 0.01 97 1014.4
20260903125024 78 50 2.6 5.2 0.00 0.04 0.01 97 1014.5
20260903124543 79 49 1.7 5.2 0.00 0.04 0.01 97 1014.6
20260903124025 78 42 1.7 3.5 0.00 0.04 0.01 97 1014.6
20260903123521 78 59 1.7 3.5 0.00 0.04 0.01 97 1014.5
20260903123042 78 53 0.9 2.6 0.00 0.04 0.01 97 1014.4
20260903122518 77 49 0.9 2.6 0.00 0.04 0.01 97 1014.5
20260903122024 77 43 0.0 1.7 0.00 0.04 0.01 97 1014.3
20260903121548 77 0 0.0 1.7 0.00 0.04 0.01 97 1014.2
20260903121025 77 0 0.0 1.7 0.00 0.04 0.01 97 1014.2
20260903120521 77 0 0.0 4.3 0.00 0.04 0.01 97 1014.1
20260903120051 77 0 0.0 4.3 0.00 0.04 0.01 97 1014.1
20260903115524 77 40 0.9 4.3 0.00 0.04 0.01 97 1014.1
20260903115024 76 62 2.6 4.3 0.00 0.04 0.01 97 1014.0
20260903114541 76 69 1.7 4.3 0.00 0.04 0.01 97 1013.9
20260903114026 76 56 1.7 4.3 0.00 0.04 0.01 97 1013.9
20260903113522 76 43 0.9 4.3 0.00 0.04 0.01 97 1013.8
20260903113040 76 44 0.9 3.5 0.00 0.04 0.01 97 1013.9
20260903112524 76 43 0.9 4.3 0.00 0.04 0.01 97 1013.8
20260903112021 76 0 0.9 4.3 0.00 0.04 0.01 97 1013.6
20260903111555 76 54 0.9 2.6 0.00 0.04 0.01 97 1013.5
20260903111027 76 0 0.0 2.6 0.00 0.04 0.01 97 1013.4
20260903110520 76 0 0.0 2.6 0.00 0.04 0.01 97 1013.5
20260903110043 76 0 0.0 1.7 0.00 0.04 0.01 97 1013.5
20260903105521 76 0 0.0 1.7 0.00 0.04 0.01 97 1013.4
20260903105024 76 0 0.0 0.0 0.00 0.04 0.01 97 1013.2
20260903104601 76 0 0.0 0.0 0.00 0.04 0.01 97 1013.1
20260903104023 76 0 0.0 1.7 0.00 0.04 0.01 97 1013.3
20260903103524 76 0 0.0 1.7 0.00 0.04 0.01 97 1013.1
20260903103055 76 82 0.9 1.7 0.00 0.04 0.01 97 1013.1
20260903102519 76 0 0.0 2.6 0.00 0.04 0.01 97 1013.0
20260903102025 76 65 0.9 2.6 0.00 0.04 0.01 97 1013.0
20260903101549 76 42 0.0 1.7 0.00 0.04 0.01 97 1013.0
20260903101021 76 0 0.0 0.0 0.00 0.04 0.01 97 1013.0
20260903100524 76 0 0.0 0.0 0.00 0.04 0.01 97 1013.0
20260903100049 76 0 0.0 0.0 0.00 0.04 0.01 97 1013.0
20260903095523 76 0 0.0 0.0 0.00 0.04 0.01 97 1013.1
20260903095022 76 0 0.0 0.0 0.00 0.04 0.01 97 1013.1
20260903094549 76 0 0.0 0.0 0.00 0.04 0.01 97 1013.1
20260903094024 76 0 0.0 1.7 0.00 0.04 0.01 97 1013.0
20260903093523 76 0 0.0 1.7 0.00 0.04 0.01 97 1013.1
20260903093048 75 0 0.0 0.0 0.00 0.04 0.01 97 1013.1
20260903092518 76 0 0.0 0.0 0.00 0.04 0.01 97 1013.1
20260903092027 76 0 0.0 0.0 0.00 0.04 0.01 96 1013.1
20260903091549 76 0 0.0 0.0 0.00 0.04 0.01 96 1013.0
20260903091025 76 0 0.0 0.9 0.00 0.04 0.01 96 1013.0
20260903090521 76 0 0.0 0.9 0.00 0.04 0.01 96 1012.9
20260903090048 76 0 0.0 0.9 0.00 0.04 0.01 96 1012.9
20260903085524 76 42 0.0 1.7 0.00 0.04 0.01 96 1012.9
20260903085022 76 0 0.0 2.6 0.00 0.04 0.01 96 1012.8
20260903084546 76 30 0.0 2.6 0.00 0.04 0.01 97 1012.8
20260903084019 76 53 0.9 2.6 0.00 0.04 0.01 97 1012.8
20260903083525 76 49 0.0 1.7 0.00 0.04 0.01 97 1012.8
20260903083057 76 49 0.0 2.6 0.00 0.04 0.01 97 1012.8
20260903082529 76 49 0.0 2.6 0.00 0.04 0.01 97 1012.8
20260903082024 76 0 0.0 1.7 0.00 0.04 0.01 97 1012.8